2015-01-04 00:01:15 r, 15.50m,0000000053Hz,0000008690c,0000000.019s,-014.2C,00002191
2015-01-04 00:11:13 r, 15.73m,0000000042Hz,0000010769c,0000000.023s,-014.6C,00002191
2015-01-04 00:21:14 r, 15.98m,0000000034Hz,0000013548c,0000000.029s,-014.6C,00002191
2015-01-04 00:31:13 r, 16.26m,0000000026Hz,0000017663c,0000000.038s,-014.9C,00002191
2015-01-04 00:41:16 r, 16.58m,0000000020Hz,0000023470c,0000000.051s,-015.2C,00002191
2015-01-04 00:51:13 r, 16.67m,0000000018Hz,0000025569c,0000000.055s,-015.5C,00002191
2015-01-04 01:01:13 r, 16.79m,0000000016Hz,0000028528c,0000000.062s,-015.5C,00002191
2015-01-04 01:11:14 r, 16.91m,0000000014Hz,0000031999c,0000000.069s,-015.5C,00002191
2015-01-04 01:21:16 r, 17.03m,0000000013Hz,0000035598c,0000000.077s,-015.5C,00002191
2015-01-04 01:31:16 r, 17.14m,0000000012Hz,0000039214c,0000000.085s,-015.8C,00002191
2015-01-04 01:41:13 r, 17.22m,0000000011Hz,0000042424c,0000000.092s,-015.8C,00002191
2015-01-04 01:51:16 r, 17.26m,0000000010Hz,0000044119c,0000000.096s,-016.2C,00002191
2015-01-04 02:01:13 r, 17.31m,0000000010Hz,0000046008c,0000000.100s,-015.8C,00002191
2015-01-04 02:11:16 r, 17.28m,0000000011Hz,0000044836c,0000000.097s,-015.8C,00002191
2015-01-04 02:21:15 r, 17.47m,0000000008Hz,0000053301c,0000000.116s,-015.8C,00002191
2015-01-04 02:31:15 r, 17.56m,0000000008Hz,0000057930c,0000000.126s,-016.2C,00002191
2015-01-04 02:41:13 r, 17.59m,0000000007Hz,0000059887c,0000000.130s,-016.2C,00002191
2015-01-04 02:51:18 r, 17.65m,0000000007Hz,0000063203c,0000000.137s,-016.2C,00002191
2015-01-04 03:01:13 r, 17.69m,0000000007Hz,0000065303c,0000000.142s,-016.5C,00002191
2015-01-04 03:11:15 r, 17.74m,0000000006Hz,0000068267c,0000000.148s,-016.5C,00002191
2015-01-04 03:21:15 r, 17.78m,0000000006Hz,0000071021c,0000000.154s,-016.5C,00002191
2015-01-04 03:31:13 r, 17.84m,0000000006Hz,0000074799c,0000000.162s,-016.8C,00002191
2015-01-04 03:41:16 r, 17.87m,0000000006Hz,0000076899c,0000000.167s,-016.8C,00002191
2015-01-04 03:51:16 r, 17.91m,0000000006Hz,0000080017c,0000000.174s,-017.1C,00002191
2015-01-04 04:01:14 r, 17.94m,0000000006Hz,0000082707c,0000000.179s,-017.1C,00002191
2015-01-04 04:11:16 r, 17.99m,0000000005Hz,0000086226c,0000000.187s,-017.1C,00002191
2015-01-04 04:21:18 r, 18.00m,0000000005Hz,0000087428c,0000000.190s,-017.1C,00002191
2015-01-04 04:31:13 r, 18.01m,0000000005Hz,0000087699c,0000000.190s,-017.1C,00002191
2015-01-04 04:41:13 r, 18.02m,0000000005Hz,0000088357c,0000000.192s,-017.1C,00002191
2015-01-04 04:51:15 r, 18.10m,0000000004Hz,0000095030c,0000000.206s,-017.1C,00002191
2015-01-04 05:01:13 r, 18.15m,0000000005Hz,0000099932c,0000000.217s,-017.1C,00002191
2015-01-04 05:11:13 r, 18.21m,0000000004Hz,0000105488c,0000000.229s,-017.1C,00002191
2015-01-04 05:21:15 r, 18.27m,0000000004Hz,0000111352c,0000000.242s,-017.1C,00002191
2015-01-04 05:31:15 r, 18.33m,0000000004Hz,0000117273c,0000000.254s,-017.1C,00002191
2015-01-04 05:41:15 r, 18.39m,0000000003Hz,0000124742c,0000000.271s,-017.1C,00002191
2015-01-04 05:51:13 r, 18.46m,0000000003Hz,0000133528c,0000000.290s,-017.5C,00002191
2015-01-04 06:01:15 r, 18.55m,0000000003Hz,0000144718c,0000000.314s,-017.5C,00002191
2015-01-04 06:11:13 r, 18.65m,0000000003Hz,0000157790c,0000000.342s,-017.5C,00002191
2015-01-04 06:21:16 r, 18.75m,0000000003Hz,0000173621c,0000000.377s,-017.8C,00002191
2015-01-04 06:31:13 r, 18.76m,0000000003Hz,0000175917c,0000000.382s,-017.8C,00002191
2015-01-04 06:41:16 r, 18.98m,0000000002Hz,0000215036c,0000000.467s,-017.5C,00002191
2015-01-04 06:51:14 r, 19.11m,0000000001Hz,0000239745c,0000000.520s,-017.5C,00002191
2015-01-04 07:01:16 r, 18.98m,0000000002Hz,0000214238c,0000000.465s,-017.1C,00002191
2015-01-04 07:11:13 r, 18.50m,0000000003Hz,0000138050c,0000000.300s,-017.1C,00002191
2015-01-04 07:21:15 r, 17.41m,0000000009Hz,0000050652c,0000000.110s,-017.1C,00002191
2015-01-04 07:31:15 r, 15.97m,0000000034Hz,0000013332c,0000000.029s,-017.1C,00002191
2015-01-04 07:41:15 r, 14.19m,0000000178Hz,0000000000c,0000000.000s,-017.1C,00002191
2015-01-04 07:51:21 r, 12.35m,0000000973Hz,0000000000c,0000000.000s,-017.5C,00002191
2015-01-04 08:01:13 r, 10.61m,0000004856Hz,0000000000c,0000000.000s,-017.5C,00002191
2015-01-04 08:11:14 r, 09.03m,0000020828Hz,0000000000c,0000000.000s,-017.5C,00002191
2015-01-04 08:21:15 r, 07.81m,0000063249Hz,0000000000c,0000000.000s,-017.5C,00002191
2015-01-04 08:31:15 r, 06.98m,0000136995Hz,0000000000c,0000000.000s,-017.8C,00002191
2015-01-04 08:41:13 r, 06.37m,0000237703Hz,0000000000c,0000000.000s,-017.8C,00002191
2015-01-04 08:51:15 r, 05.94m,0000356343Hz,0000000000c,0000000.000s,-017.5C,00002191
2015-01-04 09:01:16 r, 00.00m,0000489296Hz,0000000000c,0000000.000s,-016.8C,00002191
2015-01-04 09:11:14 r, 00.00m,0000598522Hz,0000000000c,0000000.000s,-015.5C,00002191
2015-01-04 09:21:15 r, 00.00m,0000598297Hz,0000000000c,0000000.000s,-013.6C,00002191
2015-01-04 09:31:13 r, 00.00m,0000598087Hz,0000000000c,0000000.000s,-011.7C,00002191
2015-01-04 09:41:13 r, 00.00m,0000598062Hz,0000000000c,0000000.000s,-010.7C,00002191
2015-01-04 09:51:14 r, 00.00m,0000597955Hz,0000000000c,0000000.000s,-010.4C,00002191
2015-01-04 10:01:15 r, 00.00m,0000597891Hz,0000000000c,0000000.000s,-009.7C,00002191
2015-01-04 10:11:13 r, 00.00m,0000597896Hz,0000000000c,0000000.000s,-008.1C,00002191
2015-01-04 10:21:16 r, 00.00m,0000597783Hz,0000000000c,0000000.000s,-006.5C,00002191
2015-01-04 10:31:13 r, 00.00m,0000597716Hz,0000000000c,0000000.000s,-005.2C,00002191
2015-01-04 10:41:16 r, 00.00m,0000597604Hz,0000000000c,0000000.000s,-004.6C,00002191
2015-01-04 10:51:14 r, 00.00m,0000597551Hz,0000000000c,0000000.000s,-003.9C,00002191
2015-01-04 11:01:15 r, 00.00m,0000597544Hz,0000000000c,0000000.000s,-003.6C,00002191
2015-01-04 11:11:13 r, 00.00m,0000597607Hz,0000000000c,0000000.000s,-004.2C,00002191
2015-01-04 11:21:15 r, 00.00m,0000597477Hz,0000000000c,0000000.000s,-003.6C,00002191
2015-01-04 11:31:13 r, 00.00m,0000597505Hz,0000000000c,0000000.000s,-003.3C,00002191
2015-01-04 11:41:14 r, 00.00m,0000597392Hz,0000000000c,0000000.000s,-003.0C,00002191
2015-01-04 11:51:13 r, 00.00m,0000597514Hz,0000000000c,0000000.000s,-003.0C,00002191
2015-01-04 12:01:16 r, 00.00m,0000597497Hz,0000000000c,0000000.000s,-002.6C,00002191
2015-01-04 12:11:13 r, 00.00m,0000597493Hz,0000000000c,0000000.000s,-003.0C,00002191
2015-01-04 12:21:13 r, 00.00m,0000597719Hz,0000000000c,0000000.000s,-005.5C,00002191
2015-01-04 12:31:13 r, 00.00m,0000597863Hz,0000000000c,0000000.000s,-008.1C,00002191
2015-01-04 12:41:13 r, 00.00m,0000598055Hz,0000000000c,0000000.000s,-009.4C,00002191
2015-01-04 12:51:15 r, 00.00m,0000598097Hz,0000000000c,0000000.000s,-010.4C,00002191
2015-01-04 13:01:15 r, 00.00m,0000598021Hz,0000000000c,0000000.000s,-010.7C,00002191
2015-01-04 13:11:13 r, 00.00m,0000598051Hz,0000000000c,0000000.000s,-010.7C,00002191
2015-01-04 13:21:15 r, 00.00m,0000598163Hz,0000000000c,0000000.000s,-011.0C,00002191
2015-01-04 13:31:13 r, 00.00m,0000598057Hz,0000000000c,0000000.000s,-011.7C,00002191
2015-01-04 13:41:15 r, 00.00m,0000598103Hz,0000000000c,0000000.000s,-011.3C,00002191
2015-01-04 13:51:15 r, 00.00m,0000597962Hz,0000000000c,0000000.000s,-011.7C,00002191
2015-01-04 14:01:16 r, 00.00m,0000597970Hz,0000000000c,0000000.000s,-011.3C,00002191
2015-01-04 14:11:13 r, 00.00m,0000598069Hz,0000000000c,0000000.000s,-011.3C,00002191
2015-01-04 14:21:16 r, 00.00m,0000598105Hz,0000000000c,0000000.000s,-011.3C,00002191
2015-01-04 14:31:13 r, 00.00m,0000598165Hz,0000000000c,0000000.000s,-011.3C,00002191
2015-01-04 14:41:15 r, 00.00m,0000598040Hz,0000000000c,0000000.000s,-011.3C,00002191
2015-01-04 14:51:15 r, 00.00m,0000598168Hz,0000000000c,0000000.000s,-011.3C,00002191
2015-01-04 15:01:15 r, 00.00m,0000598111Hz,0000000000c,0000000.000s,-011.3C,00002191
2015-01-04 15:11:13 r, 00.00m,0000598158Hz,0000000000c,0000000.000s,-011.7C,00002191
2015-01-04 15:21:15 r, 00.00m,0000598102Hz,0000000000c,0000000.000s,-012.0C,00002191
2015-01-04 15:31:13 r, 00.00m,0000598164Hz,0000000000c,0000000.000s,-012.0C,00002191
2015-01-04 15:41:16 r, 00.00m,0000598041Hz,0000000000c,0000000.000s,-012.0C,00002191
2015-01-04 15:51:14 r, 00.00m,0000587378Hz,0000000000c,0000000.000s,-011.3C,00002191
2015-01-04 16:01:13 r, 00.00m,0000484864Hz,0000000000c,0000000.000s,-011.0C,00002191
2015-01-04 16:11:13 r, 05.86m,0000382515Hz,0000000000c,0000000.000s,-011.0C,00002191
2015-01-04 16:21:16 r, 06.22m,0000275616Hz,0000000000c,0000000.000s,-011.0C,00002191
2015-01-04 16:31:14 r, 06.73m,0000172710Hz,0000000000c,0000000.000s,-011.7C,00002191
2015-01-04 16:41:13 r, 07.45m,0000088679Hz,0000000000c,0000000.000s,-012.3C,00002191
2015-01-04 16:51:16 r, 08.45m,0000035526Hz,0000000000c,0000000.000s,-012.6C,00002191
2015-01-04 17:01:13 r, 09.81m,0000010102Hz,0000000000c,0000000.000s,-013.3C,00002191
2015-01-04 17:11:16 r, 11.47m,0000002191Hz,0000000000c,0000000.000s,-013.6C,00002191
2015-01-04 17:21:13 r, 13.31m,0000000402Hz,0000000000c,0000000.000s,-013.6C,00002191
2015-01-04 17:31:16 r, 15.33m,0000000062Hz,0000007425c,0000000.016s,-013.6C,00002191
2015-01-04 17:41:13 r, 16.88m,0000000015Hz,0000031021c,0000000.067s,-013.9C,00002191
2015-01-04 17:51:15 r, 17.92m,0000000006Hz,0000081277c,0000000.176s,-013.9C,00002191
2015-01-04 18:01:15 r, 18.46m,0000000004Hz,0000132506c,0000000.288s,-013.9C,00002191
2015-01-04 18:11:13 r, 18.59m,0000000003Hz,0000150005c,0000000.326s,-014.2C,00002191
2015-01-04 18:21:15 r, 18.57m,0000000003Hz,0000146659c,0000000.318s,-014.2C,00002191
2015-01-04 18:31:13 r, 18.50m,0000000003Hz,0000137291c,0000000.298s,-014.2C,00002191
2015-01-04 18:41:13 r, 18.43m,0000000004Hz,0000128567c,0000000.279s,-014.2C,00002191
2015-01-04 18:51:16 r, 18.34m,0000000004Hz,0000119157c,0000000.259s,-014.2C,00002191
2015-01-04 19:01:14 r, 18.28m,0000000004Hz,0000112324c,0000000.244s,-014.2C,00002191
2015-01-04 19:11:16 r, 18.22m,0000000005Hz,0000106687c,0000000.232s,-014.2C,00002191
2015-01-04 19:21:13 r, 18.14m,0000000004Hz,0000098947c,0000000.215s,-014.2C,00002191
2015-01-04 19:31:15 r, 17.74m,0000000007Hz,0000068268c,0000000.148s,-014.2C,00002191
2015-01-04 19:41:13 r, 18.02m,0000000005Hz,0000088477c,0000000.192s,-014.2C,00002191
2015-01-04 19:51:15 r, 17.98m,0000000005Hz,0000085378c,0000000.185s,-014.6C,00002191
2015-01-04 20:01:13 r, 17.93m,0000000006Hz,0000081769c,0000000.177s,-014.6C,00002191
2015-01-04 20:11:15 r, 17.87m,0000000006Hz,0000077594c,0000000.168s,-014.9C,00002191
2015-01-04 20:21:13 r, 17.82m,0000000006Hz,0000074034c,0000000.161s,-014.9C,00002191
2015-01-04 20:31:16 r, 17.74m,0000000007Hz,0000068348c,0000000.148s,-014.9C,00002191
2015-01-04 20:41:20 r, 17.66m,0000000008Hz,0000063367c,0000000.138s,-014.9C,00002191
2015-01-04 20:51:13 r, 17.59m,0000000008Hz,0000059597c,0000000.129s,-014.9C,00002191
2015-01-04 21:01:15 r, 17.52m,0000000008Hz,0000056029c,0000000.122s,-014.9C,00002191
2015-01-04 21:11:13 r, 17.46m,0000000009Hz,0000053006c,0000000.115s,-014.6C,00002191
2015-01-04 21:21:18 r, 17.40m,0000000009Hz,0000050173c,0000000.109s,-014.6C,00002191
2015-01-04 21:31:14 r, 17.33m,0000000010Hz,0000046674c,0000000.101s,-014.6C,00002191
2015-01-04 21:41:16 r, 17.22m,0000000011Hz,0000042714c,0000000.093s,-014.6C,00002191
2015-01-04 21:51:13 r, 17.05m,0000000012Hz,0000036569c,0000000.079s,-014.6C,00002191
2015-01-04 22:01:16 r, 16.91m,0000000014Hz,0000031762c,0000000.069s,-014.6C,00002191
2015-01-04 22:11:13 r, 16.81m,0000000016Hz,0000029079c,0000000.063s,-014.6C,00002191
2015-01-04 22:21:15 r, 16.69m,0000000018Hz,0000025886c,0000000.056s,-014.6C,00002191
2015-01-04 22:31:13 r, 16.57m,0000000020Hz,0000023249c,0000000.050s,-014.2C,00002191
2015-01-04 22:41:15 r, 16.41m,0000000023Hz,0000020151c,0000000.044s,-013.9C,00002191
2015-01-04 22:51:13 r, 16.26m,0000000026Hz,0000017458c,0000000.038s,-013.9C,00002191
2015-01-04 23:01:15 r, 16.08m,0000000031Hz,0000014811c,0000000.032s,-013.6C,00002191
2015-01-04 23:11:13 r, 15.81m,0000000040Hz,0000011569c,0000000.025s,-013.3C,00002191
2015-01-04 23:21:16 r, 15.59m,0000000049Hz,0000009437c,0000000.020s,-013.3C,00002191
2015-01-04 23:31:15 r, 15.43m,0000000057Hz,0000008139c,0000000.018s,-013.3C,00002191
2015-01-04 23:41:16 r, 15.30m,0000000063Hz,0000007260c,0000000.016s,-013.3C,00002191
2015-01-04 23:51:13 r, 15.18m,0000000070Hz,0000006491c,0000000.014s,-013.3C,00002191
